HST
1 20580U 90037B   24112.09457118  .00010222  00000-0  49580-3 0  9995
2 20580  28.4700   7.4112 0002567 126.5641 233.5188 15.16849344668610
ISS (ZARYA)
1 25544U 98067A   24112.38269120  .00029812  00000-0  51791-3 0  9999
2 25544  51.6384 237.0671 0004722  87.4128  10.8899 15.50559183449734
CXO
1 25867U 99040B   24112.33278554  .00000940  00000-0  00000+0 0  9999
2 25867  39.9529 159.3198 8942329 292.4515   0.0893  0.37815290 25505